Location: Calvatone
(45.1167°N, 10.4333°E)
Time: 12:14:46
(UTC+00:00)

ISS - Pass Details

Date: 28 January 2023
Orbit: 413 x 421 km, 51.6° (Epoch: 30 March)

Event Time Altitude Azimuth Distance (km) Brightness Sun altitude
Rises 17:30:04 0° 295° (WNW) 2,431 1.0 -12.5°
Reaches altitude 10° 17:32:21 10° 306° (NW) 1,562 -0.3 -12.9°
Maximum altitude 17:35:32 31° 11° (N) 805 -2.6 -13.5°
Enters shadow 17:36:55 23° 52° (NE) 992 -2.4 -13.7°
